FW0827 Weather Reports


Display with metric or nautical units.
time (UTC)temp
F
wind
direction
speed
MPH
gust
MPH
rain 1hr
in
rain 24hr
in
rain mn
in
humidity
%
barometer
mb
20260831002204 75 292 0.0 0.0 0.00 0.03 0.03 98 1018.9
20260831001705 75 291 0.0 0.0 0.00 0.03 0.03 97 1019.0
20260831001204 76 291 0.0 0.0 0.00 0.03 0.03 97 1019.1
20260831000704 75 291 0.0 0.0 0.00 0.03 0.03 97 1018.9
20260831000206 76 291 0.0 0.0 0.00 0.03 0.03 97 1018.9
20260830235704 76 291 0.0 0.0 0.00 0.03 0.03 97 1019.1
20260830235204 76 291 0.0 0.0 0.00 0.03 0.03 96 1019.0
20260830234205 76 290 0.0 0.0 0.00 0.03 0.03 96 1018.6
20260830233704 76 290 0.0 0.0 0.00 0.03 0.03 95 1018.9
20260830233204 76 290 0.0 0.0 0.00 0.03 0.03 95 1018.9
20260830232705 76 290 0.0 0.0 0.00 0.03 0.03 94 1019.0
20260830232205 76 290 0.0 0.0 0.00 0.03 0.03 94 1019.0
20260830231705 77 290 0.0 0.0 0.00 0.03 0.03 94 1019.0
20260830231204 77 290 0.0 0.0 0.00 0.03 0.03 93 1019.0
20260830230704 77 290 0.0 0.0 0.00 0.03 0.03 93 1018.9
20260830230205 78 290 0.0 0.0 0.00 0.03 0.03 92 1018.9
20260830225704 78 290 0.0 0.0 0.00 0.03 0.03 92 1019.0
20260830225204 78 290 0.0 0.0 0.00 0.03 0.03 91 1018.7
20260830224204 79 290 0.0 1.0 0.00 0.03 0.03 90 1018.9
20260830223704 79 287 0.0 1.0 0.00 0.03 0.03 89 1018.9
20260830223206 79 286 0.0 0.0 0.00 0.03 0.03 88 1018.9
20260830222704 80 285 0.0 0.0 0.00 0.03 0.03 87 1018.6
20260830222204 80 284 0.0 3.0 0.00 0.03 0.03 87 1018.8
20260830221704 80 282 1.0 3.0 0.00 0.03 0.03 86 1018.7
20260830221205 80 282 0.0 3.0 0.00 0.03 0.03 87 1018.9
20260830220705 81 279 1.0 5.0 0.00 0.03 0.03 86 1018.6
20260830215705 81 281 0.0 1.0 0.00 0.03 0.03 85 1018.7
20260830215206 81 282 0.0 1.0 0.00 0.03 0.03 86 1018.7
20260830214704 81 282 0.0 1.0 0.00 0.03 0.03 86 1018.6
20260830214204 81 280 0.0 1.0 0.00 0.03 0.03 86 1018.4
20260830213204 81 282 0.0 1.0 0.00 0.03 0.03 86 1018.3
20260830212704 80 282 0.0 0.0 0.00 0.03 0.03 87 1018.4
20260830212205 80 282 0.0 1.0 0.00 0.03 0.03 86 1018.8
20260830210704 81 261 2.0 7.0 0.00 0.03 0.03 83 1018.7
20260830210204 81 280 1.0 5.0 0.00 0.03 0.03 84 1018.7
20260830205705 81 287 0.0 3.0 0.00 0.03 0.03 84 1018.6
20260830205205 81 282 2.0 3.0 0.00 0.03 0.03 83 1018.7
20260830204204 82 258 1.0 3.0 0.00 0.03 0.03 84 1018.8
20260830203204 82 284 0.0 1.0 0.00 0.03 0.03 85 1018.7
20260830202204 80 260 2.0 5.0 0.00 0.03 0.03 85 1018.8
20260830201704 80 286 1.0 3.0 0.00 0.03 0.03 85 1018.6
20260830201205 81 265 2.0 7.0 0.00 0.03 0.03 86 1018.7
20260830200705 81 263 2.0 5.0 0.00 0.03 0.03 84 1018.8
20260830200205 81 292 1.0 5.0 0.00 0.03 0.03 85 1019.0
20260830195704 81 293 1.0 5.0 0.00 0.03 0.03 88 1019.0
20260830195205 81 292 0.0 5.0 0.00 0.03 0.03 86 1019.0
20260830194706 81 286 0.0 5.0 0.02 0.03 0.03 86 1019.1
20260830193704 81 296 0.0 1.0 0.03 0.03 0.03 89 1019.1
20260830193204 80 287 0.0 5.0 0.03 0.03 0.03 93 1019.6
20260830192704 78 284 1.0 5.0 0.03 0.03 0.03 95 1019.5
20260830192206 77 310 0.0 5.0 0.03 0.03 0.03 97 1019.6
20260830191704 77 313 1.0 3.0 0.03 0.03 0.03 98 1019.6
20260830191204 77 327 1.0 3.0 0.03 0.03 0.03 98 1019.8
20260830190204 76 311 0.0 1.0 0.03 0.03 0.03 96 1020.0
20260830185704 76 308 0.0 1.0 0.03 0.03 0.03 94 1019.9
20260830185204 77 296 0.0 1.0 0.03 0.03 0.03 93 1019.9
20260830184705 78 282 1.0 1.0 0.01 0.01 0.01 90 1019.9
20260830184205 80 284 1.0 1.0 0.00 0.00 0.00 86 1019.9
20260830183704 81 292 0.0 3.0 0.00 0.00 0.00 85 1019.8
20260830183205 81 263 1.0 3.0 0.00 0.00 0.00 83 1020.0
20260830182704 81 296 1.0 1.0 0.00 0.00 0.00 83 1020.3
20260830182204 81 277 0.0 5.0 0.00 0.00 0.00 85 1020.2
20260830181204 82 280 1.0 3.0 0.00 0.00 0.00 81 1020.2
20260830180704 83 262 2.0 3.0 0.00 0.00 0.00 81 1020.5
20260830180205 81 265 1.0 5.0 0.00 0.00 0.00 83 1020.2
20260830175705 80 280 0.0 3.0 0.00 0.00 0.00 85 1020.4
20260830175204 80 279 1.0 3.0 0.00 0.00 0.00 84 1020.7
20260830174704 81 270 1.0 3.0 0.00 0.00 0.00 84 1020.6
20260830172705 81 286 0.0 3.0 0.00 0.00 0.00 84 1020.8
20260830172204 81 290 1.0 3.0 0.00 0.00 0.00 85 1020.8
20260830171704 80 292 1.0 3.0 0.00 0.00 0.00 85 1020.7
20260830171204 79 276 1.0 3.0 0.00 0.00 0.00 86 1020.9
20260830170704 78 277 1.0 3.0 0.00 0.00 0.00 87 1021.0
20260830170205 79 283 0.0 3.0 0.00 0.00 0.00 86 1020.8
20260830165704 79 278 1.0 1.0 0.00 0.00 0.00 86 1021.0
20260830164704 79 274 1.0 5.0 0.00 0.00 0.00 86 1021.0
20260830164204 80 281 1.0 3.0 0.00 0.00 0.00 84 1021.1
20260830163704 80 287 1.0 1.0 0.00 0.00 0.00 84 1021.2
20260830163204 80 286 1.0 3.0 0.00 0.00 0.00 84 1021.2
20260830162704 81 291 1.0 3.0 0.00 0.00 0.00 85 1021.2
20260830162204 80 239 1.0 3.0 0.00 0.00 0.00 84 1021.4
20260830161205 80 203 2.0 7.0 0.00 0.00 0.00 85 1021.2
20260830160704 78 237 2.0 7.0 0.00 0.00 0.00 86 1021.2
20260830155706 78 284 1.0 5.0 0.00 0.00 0.00 87 1021.4
20260830155204 77 311 1.0 5.0 0.00 0.00 0.00 89 1021.5
20260830154704 76 299 1.0 3.0 0.00 0.00 0.00 91 1021.6
20260830153704 74 286 0.0 1.0 0.00 0.00 0.00 92 1021.6
20260830153205 75 286 0.0 1.0 0.00 0.00 0.00 91 1021.5
20260830152704 75 288 1.0 3.0 0.00 0.00 0.00 90 1021.8
20260830152206 76 279 1.0 3.0 0.00 0.00 0.00 89 1021.9
20260830151705 76 311 0.0 1.0 0.00 0.00 0.00 89 1021.9
20260830145705 77 276 1.0 3.0 0.00 0.00 0.00 88 1021.7
20260830144705 77 285 0.0 1.0 0.00 0.00 0.00 87 1021.8
20260830143704 76 248 2.0 3.0 0.00 0.00 0.00 87 1021.6
20260830142704 77 281 1.0 3.0 0.00 0.00 0.00 87 1021.7
20260830142204 76 283 0.0 3.0 0.00 0.00 0.00 87 1021.8
20260830141704 76 264 1.0 3.0 0.00 0.00 0.00 88 1021.8
20260830141205 75 256 1.0 3.0 0.00 0.00 0.00 88 1021.8
20260830140704 75 252 1.0 3.0 0.00 0.00 0.00 90 1021.9
20260830135704 73 295 0.0 1.0 0.00 0.00 0.00 91 1022.2
20260830135204 71 285 1.0 1.0 0.00 0.00 0.00 93 1022.3
20260830134705 69 277 0.0 1.0 0.00 0.00 0.00 95 1022.3
20260830134206 69 293 0.0 0.0 0.00 0.00 0.00 97 1022.3
20260830133704 68 293 0.0 0.0 0.00 0.00 0.00 98 1022.3
20260830133204 67 293 0.0 0.0 0.00 0.00 0.00 99 1022.5
20260830132704 66 294 0.0 0.0 0.00 0.00 0.00 99 1022.7
20260830132204 65 294 0.0 0.0 0.00 0.00 0.00 99 1022.5
20260830131705 65 293 0.0 0.0 0.00 0.00 0.00 99 1022.3
20260830125704 64 293 0.0 0.0 0.00 0.00 0.00 99 1022.8
20260830125204 63 293 0.0 0.0 0.00 0.00 0.00 99 1022.7
20260830124704 63 293 0.0 0.0 0.00 0.00 0.00 99 1022.8
20260830123704 62 293 0.0 0.0 0.00 0.00 0.00 99 1022.9
20260830123204 62 293 0.0 0.0 0.00 0.00 0.00 99 1022.7
20260830122704 62 293 0.0 0.0 0.00 0.00 0.00 99 1022.9
20260830122204 62 293 0.0 0.0 0.00 0.00 0.00 99 1022.8
20260830121705 61 293 0.0 0.0 0.00 0.00 0.00 99 1022.8
20260830121204 61 293 0.0 0.0 0.00 0.00 0.00 99 1022.8
20260830120704 61 293 0.0 0.0 0.00 0.00 0.00 99 1022.8
20260830120204 60 293 0.0 0.0 0.00 0.00 0.00 99 1022.7
20260830115704 60 293 0.0 0.0 0.00 0.00 0.00 99 1022.9
20260830114704 59 293 0.0 0.0 0.00 0.00 0.00 99 1022.9
20260830114204 59 293 0.0 0.0 0.00 0.00 0.00 99 1023.1
20260830113705 59 293 0.0 0.0 0.00 0.00 0.00 99 1022.8
20260830113204 59 293 0.0 0.0 0.00 0.00 0.00 99 1022.8
20260830112704 59 293 0.0 0.0 0.00 0.00 0.00 99 1022.7
20260830112205 59 293 0.0 0.0 0.00 0.00 0.00 99 1022.8
20260830111704 58 294 0.0 0.0 0.00 0.00 0.00 99 1022.8
20260830110705 58 294 0.0 0.0 0.00 0.00 0.00 99 1022.8
20260830110205 58 294 0.0 0.0 0.00 0.00 0.00 99 1023.0
20260830105704 58 294 0.0 0.0 0.00 0.00 0.00 99 1022.8
20260830105205 58 294 0.0 0.0 0.00 0.00 0.00 99 1022.7
20260830104705 57 294 0.0 0.0 0.00 0.00 0.00 99 1022.9
20260830104204 57 294 0.0 0.0 0.00 0.00 0.00 99 1022.8
20260830103704 57 294 0.0 0.0 0.00 0.00 0.00 99 1022.7
20260830103204 57 294 0.0 0.0 0.00 0.00 0.00 99 1022.9
20260830102704 56 294 0.0 0.0 0.00 0.00 0.00 99 1022.8
20260830102204 57 294 0.0 0.0 0.00 0.00 0.00 99 1022.9
20260830101704 57 294 0.0 0.0 0.00 0.00 0.00 99 1023.0
20260830101204 56 294 0.0 0.0 0.00 0.00 0.00 99 1022.9
20260830100704 56 294 0.0 0.0 0.00 0.00 0.00 99 1023.0
20260830100205 56 294 0.0 0.0 0.00 0.00 0.00 99 1022.6
20260830095704 56 294 0.0 0.0 0.00 0.00 0.00 99 1022.8
20260830095204 56 294 0.0 0.0 0.00 0.00 0.00 99 1022.8
20260830094705 56 294 0.0 0.0 0.00 0.00 0.00 99 1023.0
20260830094204 56 294 0.0 0.0 0.00 0.00 0.00 99 1022.9
20260830093705 56 294 0.0 0.0 0.00 0.00 0.00 99 1022.9
20260830093204 56 294 0.0 0.0 0.00 0.00 0.00 99 1022.7
20260830092204 56 294 0.0 0.0 0.00 0.00 0.00 99 1022.7
20260830091705 56 294 0.0 0.0 0.00 0.00 0.00 99 1022.7
20260830091204 56 294 0.0 0.0 0.00 0.00 0.00 99 1022.8
20260830090704 56 294 0.0 0.0 0.00 0.00 0.00 99 1022.7
20260830090204 55 294 0.0 0.0 0.00 0.00 0.00 99 1022.9
20260830085704 55 294 0.0 0.0 0.00 0.00 0.00 99 1022.9
20260830085204 55 294 0.0 0.0 0.00 0.00 0.00 99 1023.0
20260830084706 55 294 0.0 0.0 0.00 0.00 0.00 99 1022.9
20260830084205 55 294 0.0 0.0 0.00 0.00 0.00 99 1022.7
20260830083704 55 294 0.0 0.0 0.00 0.00 0.00 99 1022.9
20260830083204 55 294 0.0 0.0 0.00 0.00 0.00 99 1022.9
20260830082706 55 294 0.0 0.0 0.00 0.00 0.00 99 1023.0
20260830081704 55 294 0.0 0.0 0.00 0.00 0.00 99 1023.1
20260830081204 55 294 0.0 0.0 0.00 0.00 0.00 99 1023.0
20260830080205 55 294 0.0 0.0 0.00 0.00 0.00 99 1023.2
20260830075704 55 294 0.0 0.0 0.00 0.00 0.00 99 1023.1
20260830074705 56 294 0.0 0.0 0.00 0.00 0.00 99 1023.4
20260830074204 55 294 0.0 0.0 0.00 0.00 0.00 99 1023.4
20260830073704 55 294 0.0 0.0 0.00 0.00 0.00 99 1023.6
20260830072704 55 294 0.0 0.0 0.00 0.00 0.00 99 1023.6
20260830072204 55 294 0.0 0.0 0.00 0.00 0.00 99 1023.3
20260830071704 55 294 0.0 0.0 0.00 0.00 0.00 99 1023.2
20260830071204 55 294 0.0 0.0 0.00 0.00 0.00 99 1023.2
20260830070704 55 294 0.0 0.0 0.00 0.00 0.00 99 1023.2
20260830070204 55 294 0.0 0.0 0.00 0.00 0.00 99 1023.3
20260830065704 55 294 0.0 0.0 0.00 0.00 0.00 99 1023.4
20260830064705 55 294 0.0 0.0 0.00 0.00 0.00 99 1023.5
20260830064204 55 294 0.0 0.0 0.00 0.00 0.00 99 1023.6
20260830063704 55 294 0.0 0.0 0.00 0.00 0.00 99 1023.5
20260830063204 55 294 0.0 0.0 0.00 0.00 0.00 99 1023.6
20260830062704 55 294 0.0 0.0 0.00 0.00 0.00 99 1023.7
20260830062204 55 294 0.0 0.0 0.00 0.00 0.00 99 1023.8
20260830061204 55 294 0.0 0.0 0.00 0.00 0.00 99 1023.5
20260830060706 55 294 0.0 0.0 0.00 0.00 0.00 99 1023.7
20260830060205 55 294 0.0 0.0 0.00 0.00 0.00 99 1023.6
20260830055704 55 294 0.0 0.0 0.00 0.00 0.00 99 1023.5
20260830055204 55 294 0.0 0.0 0.00 0.00 0.00 99 1023.4
20260830054705 55 294 0.0 0.0 0.00 0.00 0.00 99 1023.6
20260830053704 55 294 0.0 0.0 0.00 0.00 0.00 99 1023.5
20260830053204 55 294 0.0 0.0 0.00 0.00 0.00 99 1023.4
20260830052704 55 294 0.0 0.0 0.00 0.00 0.00 99 1023.5
20260830052204 55 294 0.0 0.0 0.00 0.00 0.00 99 1023.5
20260830051705 56 294 0.0 0.0 0.00 0.00 0.00 99 1023.5
20260830051205 56 294 0.0 0.0 0.00 0.00 0.00 99 1023.4
20260830050705 56 294 0.0 0.0 0.00 0.00 0.00 99 1023.6
20260830050204 55 294 0.0 0.0 0.00 0.00 0.00 99 1023.4
20260830045705 56 294 0.0 0.0 0.00 0.00 0.00 99 1023.6
20260830045204 56 294 0.0 0.0 0.00 0.00 0.00 99 1023.5
20260830044704 56 294 0.0 0.0 0.00 0.00 0.00 99 1023.5
20260830044205 56 294 0.0 0.0 0.00 0.00 0.00 99 1023.4
20260830043704 56 294 0.0 0.0 0.00 0.00 0.00 99 1023.4
20260830043205 56 294 0.0 0.0 0.00 0.00 0.00 99 1023.3
20260830042705 56 294 0.0 0.0 0.00 0.00 0.00 99 1023.3
20260830042205 57 293 0.0 0.0 0.00 0.00 0.00 99 1023.3
20260830041704 56 293 0.0 0.0 0.00 0.00 0.00 99 1023.3
20260830041204 57 293 0.0 0.0 0.00 0.00 0.00 99 1023.2
20260830040707 57 293 0.0 0.0 0.00 0.00 0.00 99 1023.2
20260830035705 57 293 0.0 0.0 0.00 0.05 0.00 99 1023.0
20260830035205 57 293 0.0 0.0 0.00 0.05 0.00 99 1023.1
20260830034705 56 293 0.0 0.0 0.00 0.05 0.00 99 1022.9
20260830033704 57 293 0.0 0.0 0.00 0.05 0.00 99 1023.1
20260830033204 56 293 0.0 0.0 0.00 0.05 0.00 99 1023.2
20260830032204 57 293 0.0 0.0 0.00 0.05 0.00 99 1023.3
20260830031704 57 293 0.0 0.0 0.00 0.05 0.00 99 1023.3
20260830031205 57 293 0.0 0.0 0.00 0.05 0.00 99 1023.2
20260830030704 58 293 0.0 0.0 0.00 0.05 0.00 99 1023.3
20260830030206 58 293 0.0 0.0 0.00 0.05 0.00 99 1023.4
20260830025704 58 293 0.0 0.0 0.00 0.05 0.00 99 1023.3
20260830025204 58 293 0.0 0.0 0.00 0.05 0.00 99 1023.3
20260830024705 58 293 0.0 0.0 0.00 0.05 0.00 99 1023.2
20260830024205 58 293 0.0 0.0 0.00 0.05 0.00 99 1023.3
20260830023705 58 293 0.0 0.0 0.00 0.05 0.00 99 1023.0
20260830022704 58 293 0.0 0.0 0.00 0.05 0.00 99 1023.1
20260830022205 58 293 0.0 0.0 0.00 0.05 0.00 99 1023.1
20260830021704 58 293 0.0 0.0 0.00 0.05 0.00 99 1023.3
20260830021204 58 293 0.0 0.0 0.00 0.05 0.00 99 1023.2
20260830020704 59 293 0.0 0.0 0.00 0.05 0.00 99 1023.1
20260830020205 59 293 0.0 0.0 0.00 0.05 0.00 99 1023.1
20260830015705 59 293 0.0 0.0 0.00 0.05 0.00 99 1023.1
20260830015205 59 293 0.0 0.0 0.00 0.05 0.00 99 1023.1
20260830014705 59 293 0.0 0.0 0.00 0.05 0.00 99 1023.1
20260830014205 60 293 0.0 0.0 0.00 0.05 0.00 98 1023.1
20260830013705 60 293 0.0 0.0 0.00 0.05 0.00 98 1023.2
20260830013204 60 293 0.0 0.0 0.00 0.05 0.00 97 1023.0
20260830012704 60 293 0.0 0.0 0.00 0.05 0.00 97 1023.1
20260830012204 60 293 0.0 0.0 0.00 0.05 0.00 96 1023.0
20260830011205 61 293 0.0 0.0 0.00 0.05 0.00 95 1022.9
20260830010705 61 293 0.0 0.0 0.00 0.05 0.00 95 1022.9
20260830010206 61 293 0.0 0.0 0.00 0.05 0.00 94 1023.1
20260830005705 61 293 0.0 0.0 0.00 0.05 0.00 94 1023.0
20260830005205 61 293 0.0 0.0 0.00 0.05 0.00 93 1023.1
20260830004704 61 293 0.0 0.0 0.00 0.05 0.00 93 1023.1
20260830004204 62 293 0.0 0.0 0.00 0.05 0.00 93 1022.9
20260830003705 62 293 0.0 0.0 0.00 0.05 0.00 92 1022.9
20260830003204 62 293 0.0 0.0 0.00 0.05 0.00 91 1022.6
20260830002704 63 293 0.0 1.0 0.00 0.05 0.00 90 1022.6